Weather History for Moab, UT

Change the Weather History Date:

Monday, June 17, 2013

  Actual Average Record
Temperature  
Mean Temperature 77 °F 74 °F  
Max Temperature 96 °F 91 °F 113 °F (1936)
Min Temperature 58 °F 57 °F 44 °F (1957)
Degree Days  
Heating Degree Days 0 0  
Month to date heating degree days 0 15  
Since 1 June heating degree days 0 15  
Since 1 July heating degree days 6046 5575  
Cooling Degree Days 12 9  
Month to date cooling degree days 204 113  
Year to date cooling degree days 284 177  
Since 1 June cooling degree days 204 113  
Growing Degree Days 28 (Base 50)    
Moisture  
Dew Point 15 °F    
Average Humidity 14    
Maximum Humidity 23    
Minimum Humidity 4    
Precipitation  
Precipitation 0.00 in 0.02 in 0.45 in (1964)
Month to date precipitation T 0.29  
Year to date precipitation 1.72 3.49  
Sea Level Pressure  
Sea Level Pressure 29.79 in    
Wind  
Wind Speed 6 mph (WSW)    
Max Wind Speed 21 mph    
Max Gust Speed 25 mph    
Visibility 10 miles    
Events      
T = Trace of Precipitation, MM = Missing Value Source: NWS Daily Summary

Daily Weather History Graph

Daily Weather History Graph

Search for Another Location

Airport:

Trip Planner

Search our weather history database for the weather conditions in past years. The results will help you decide how hot, cold, wet, or windy it might be!

Date:

Astronomy

Jun. 17, 2013 Rise Set
Actual Time 5:53 AM MDT 8:46 PM MDT
Civil Twilight 5:21 AM MDT 9:18 PM MDT
Nautical Twilight 4:41 AM MDT 9:58 PM MDT
Astronomical Twilight 3:55 AM MDT 10:44 PM MDT
Moon 2:31 PM MDT (6/17) 1:27 AM MDT (6/17)
Length of Visible Light 15h 56m
Length of Day
14h 52m
First Quarter, 61% of the Moon is Illuminated
Jun 17
First Quarter
Jun 23
Full
Jun 29
Last Quarter
Jul 8
New
Jul 15
First Quarter

Hourly Weather History & Observations

Time (MDT) Temp. Dew Point Humidity Pressure Visibility Wind Dir Wind Speed Gust Speed Precip Events Conditions
12:53 AM 75.0 °F 17.1 °F 11% 29.78 in 10.0 mi Calm Calm - N/A   Clear
1:53 AM 75.0 °F 8.1 °F 8% 29.77 in 10.0 mi West 12.7 mph - N/A   Clear
2:53 AM 66.9 °F 8.1 °F 10% 29.79 in 10.0 mi North 10.4 mph - N/A   Clear
3:53 AM 63.0 °F 8.1 °F 11% 29.82 in 10.0 mi SSW 8.1 mph - N/A   Clear
4:53 AM 64.0 °F 9.0 °F 12% 29.83 in 10.0 mi Calm Calm - N/A   Clear
5:53 AM 62.1 °F 14.0 °F 15% 29.84 in 10.0 mi West 3.5 mph - N/A   Clear
6:53 AM 68.0 °F 26.1 °F 21% 29.85 in 10.0 mi Calm Calm - N/A   Clear
7:53 AM 72.0 °F 26.1 °F 18% 29.85 in 10.0 mi SE 8.1 mph - N/A   Clear
8:53 AM 75.0 °F 35.1 °F 23% 29.88 in 10.0 mi SE 10.4 mph - N/A   Clear
9:53 AM 80.1 °F 35.1 °F 20% 29.86 in 10.0 mi East 6.9 mph - N/A   Clear
10:53 AM 82.9 °F 30.0 °F 15% 29.85 in 10.0 mi Variable 3.5 mph - N/A   Clear
11:53 AM 88.0 °F 25.0 °F 10% 29.84 in 10.0 mi Variable 6.9 mph - N/A   Clear
12:53 PM 91.0 °F 15.1 °F 6% 29.82 in 10.0 mi Calm Calm - N/A   Clear
1:53 PM 91.9 °F 9.0 °F 5% 29.78 in 10.0 mi SSE 16.1 mph 23.0 mph N/A   Clear
2:53 PM 91.9 °F 10.0 °F 5% 29.77 in 10.0 mi Variable 3.5 mph 20.7 mph N/A   Clear
3:42 PM 93.2 °F 10.4 °F 5% 29.94 in 10.0 mi West 20.7 mph 24.2 mph N/A   Clear
3:53 PM 93.0 °F 10.9 °F 5% 29.75 in 10.0 mi NW 6.9 mph 25.3 mph N/A   Clear
4:53 PM 93.0 °F 12.0 °F 5% 29.73 in 10.0 mi WSW 12.7 mph 23.0 mph N/A   Clear
5:53 PM 93.0 °F 12.9 °F 5% 29.71 in 10.0 mi West 8.1 mph 16.1 mph N/A   Clear
6:53 PM 91.9 °F 10.0 °F 5% 29.70 in 10.0 mi WSW 8.1 mph - N/A   Clear
7:53 PM 90.0 °F 7.0 °F 4% 29.70 in 10.0 mi SW 8.1 mph - N/A   Clear
8:53 PM 82.0 °F 6.1 °F 6% 29.71 in 10.0 mi West 4.6 mph - N/A   Clear
9:53 PM 75.9 °F 7.0 °F 7% 29.72 in 10.0 mi WSW 6.9 mph - N/A   Clear
10:53 PM 73.9 °F 6.1 °F 7% 29.73 in 10.0 mi SSW 3.5 mph - N/A   Clear
11:53 PM 73.9 °F 6.1 °F 7% 29.72 in 10.0 mi Calm Calm - N/A   Clear